Satellite: DTUSAT-2 Catalog number: 40030 Epoch time: 14239 64564162 Element set: 187 Inclination: 097 9719 deg RA of node: 134 3600 deg Eccentricity: 0 0014013 Arg of perigee: 060 5416 deg Mean anomaly: 299 7708 deg Mean motion: 14 84986645 rev/day Decay rate: 1 308e-05 rev/day^2 Epoch rev: 1022 Checksum: 291

Satellite: ANTELSAT Catalog number: 40034 Epoch time: 14238 24390377 Element set: 190 Inclination: 097 9732 deg RA of node: 131 5135 deg Eccentricity: 0 0061829 Arg of perigee: 344 9208 deg Mean anomaly: 015 0175 deg Mean motion: 14 71309660 rev/day Decay rate: 1 084e-05 rev/day^2 Epoch rev: 990 Checksum: 281

/EX SB KEPS @ AMSAT $ORB14240 W Orbital Elements 14240 WEATHER

HR AMSAT ORBITAL ELEMENTS FOR WEATHER SATELLITES FROM WA5QGD FORT WORTH,TX August 28, 2014 BID: ORB14240 W TO ALL RADIO AMATEURS BT

Satellite: MET-2/21 Catalog number: 22782 Epoch time: 14238 14546510 Element set: 145 Inclination: 082 5481 deg RA of node: 117 8074 deg Eccentricity: 0 0023309 Arg of perigee: 070 7845 deg Mean anomaly: 039 0280 deg Mean motion: 13 83743036 rev/day Decay rate: -1 2e-07 rev/day^2 Epoch rev: 5979 Checksum: 289

Satellite: OKEAN-4 Catalog number: 23317 Epoch time: 14250 44418236 Element set: 625 Inclination: 082 5393 deg RA of node: 350 8015 deg Eccentricity: 0 0020253 Arg of perigee: 185 2050 deg Mean anomaly: 174 9536 deg Mean motion: 14 85667507 rev/day Decay rate: 9 30e-06 rev/day^2 Epoch rev: 7532 Checksum: 285

Satellite: NOAA-14 Catalog number: 23455 Epoch time: 14239 11525068 Element set: 873 Inclination: 098 7752 deg RA of node: 321 2844 deg Eccentricity: 0 0009572 Arg of perigee: 191 8672 deg Mean anomaly: 217 2046 deg Mean motion: 14 13984034 rev/day Decay rate: -5 6e-07 rev/day^2 Epoch rev: 1397 Checksum: 310

Satellite: NOAA-15 Catalog number: 25338 Epoch time: 14250 43940252 Element set: 311 Inclination: 098 7603 deg RA of node: 244 1589 deg Eccentricity: 0 0010181 Arg of perigee: 271 5081 deg Mean anomaly: 088 5495 deg Mean motion: 14 25461185 rev/day Decay rate: 1 49e-06 rev/day^2 Epoch rev: 84856 Checksum: 305

Satellite: RESURS Catalog number: 25394 Epoch time: 14237 49479830 Element set: 734 Inclination: 098 4206 deg RA of node: 198 9725 deg Eccentricity: 0 0002437 Arg of perigee: 078 8202 deg Mean anomaly: 028 9489 deg Mean motion: 14 24396322 rev/day Decay rate: -3 7e-07 rev/day^2 Epoch rev: 83818 Checksum: 336

Satellite: FENGYUN1 Catalog number: 25730 Epoch time: 14237 43563086 Element set: 224 Inclination: 098 9167 deg RA of node: 198 1188 deg Eccentricity: 0 0021529 Arg of perigee: 279 5218 deg Mean anomaly: 191 9260 deg Mean motion: 14 12007975 rev/day Decay rate: 5 98e-06 rev/day^2 Epoch rev: 78729 Checksum: 335

Satellite: OKEAN-0 Catalog number: 25860 Epoch time: 14237 01055319 Element set: 337 Inclination: 098 0504 deg RA of node: 200 4966 deg Eccentricity: 0 0001533 Arg of perigee: 126 4141 deg Mean anomaly: 275 9683 deg Mean motion: 14 75351438 rev/day Decay rate: 3 52e-06 rev/day^2 Epoch rev: 81230 Checksum: 274

Satellite: NOAA-16 Catalog number: 26536 Epoch time: 14250 43234705 Element set: 806 Inclination: 098 9829 deg RA of node: 311 1173 deg Eccentricity: 0 0010337 Arg of perigee: 314 2055 deg Mean anomaly: 045 8905 deg Mean motion: 14 13035517 rev/day Decay rate: 1 24e-06 rev/day^2 Epoch rev: 71972 Checksum: 283

Satellite: NOAA-17 Catalog number: 27453 Epoch time: 14250 49968061 Element set: 702 Inclination: 098 3212 deg RA of node: 245 8952 deg Eccentricity: 0 0011412 Arg of perigee: 295 3858 deg Mean anomaly: 064 6709 deg Mean motion: 14 24769794 rev/day Decay rate: 1 40e-06 rev/day^2 Epoch rev: 63440 Checksum: 319

Satellite: NOAA-18 Catalog number: 28654 Epoch time: 14250 49763554 Element set: 214 Inclination: 099 1572 deg RA of node: 231 6795 deg Eccentricity: 0 0014800 Arg of perigee: 033 9711 deg Mean anomaly: 326 2923 deg Mean motion: 14 12058771 rev/day Decay rate: 2 53e-06 rev/day^2 Epoch rev: 47918 Checksum: 311

Satellite: NOAA-19 Catalog number: 33591 Epoch time: 14240 83498933 Element set: 356 Inclination: 098 9480 deg RA of node: 185 6691 deg Eccentricity: 0 0013134 Arg of perigee: 277 7250 deg Mean anomaly: 082 2911 deg Mean motion: 14 11751722 rev/day Decay rate: 1 07e-06 rev/day^2 Epoch rev: 28622 Checksum: 311

/EX SB KEPS @ AMSAT $ORB14240 M Orbital Elements 14240 MISC

HR AMSAT ORBITAL ELEMENTS FOR MANNED AND MISCELLANEOUS SATELLITES FROM WA5QGD FORT WORTH,TX August 28, 2014 BID: ORB14240 M TO ALL RADIO AMATEURS BT

Satellite: HUBBLE Catalog number: 20580 Epoch time: 14240 69800633 Element set: 96 Inclination: 028 4707 deg RA of node: 280 3991 deg Eccentricity: 0 0002982 Arg of perigee: 349 8293 deg Mean anomaly: 010 2721 deg Mean motion: 15 05657398 rev/day Decay rate: 5 196e-05 rev/day^2 Epoch rev: 13565 Checksum: 306

Satellite: ISS Catalog number: 25544 Epoch time: 14240 92597390 Element set: 983 Inclination: 051 6444 deg RA of node: 099 0571 deg Eccentricity: 0 0003252 Arg of perigee: 058 2625 deg Mean anomaly: 301 9208 deg Mean motion: 15 50076760 rev/day Decay rate: 9 0e-08 rev/day^2 Epoch rev: 90261 Checksum: 288

Satellite: CO-58 Catalog number: 28895 Epoch time: 14237 47495721 Element set: 852 Inclination: 097 8310 deg RA of node: 075 7361 deg Eccentricity: 0 0018349 Arg of perigee: 148 6608 deg Mean anomaly: 211 5691 deg Mean motion: 14 61979202 rev/day Decay rate: 5 49e-06 rev/day^2 Epoch rev: 47037 Checksum: 346

Satellite: FALCON Catalog number: 30776 Epoch time: 14237 76421384 Element set: 940 Inclination: 035 4295 deg RA of node: 042 7387 deg Eccentricity: 0 0001764 Arg of perigee: 215 6812 deg Mean anomaly: 266 0135 deg Mean motion: 15 17013281 rev/day Decay rate: 6 661e-05 rev/day^2 Epoch rev: 41130 Checksum: 278

Satellite: MAST Catalog number: 31126 Epoch time: 14237 91890208 Element set: 127 Inclination: 097 9216 deg RA of node: 215 2041 deg Eccentricity: 0 0093269 Arg of perigee: 136 3600 deg Mean anomaly: 277 5899 deg Mean motion: 14 55348910 rev/day Decay rate: 4 99e-06 rev/day^2 Epoch rev: 39053 Checksum: 312

Satellite: CAPE1 Catalog number: 31130 Epoch time: 14237 21074764 Element set: 133 Inclination: 097 9425 deg RA of node: 211 2728 deg Eccentricity: 0 0099678 Arg of perigee: 156 7072 deg Mean anomaly: 203 8690 deg Mean motion: 14 54536059 rev/day Decay rate: 4 06e-06 rev/day^2 Epoch rev: 38984 Checksum: 311

Satellite: COMPASS Catalog number: 32787 Epoch time: 14237 22505694 Element set: 20 Inclination: 097 6950 deg RA of node: 288 7699 deg Eccentricity: 0 0012280 Arg of perigee: 316 1637 deg Mean anomaly: 043 8604 deg Mean motion: 14 88191646 rev/day Decay rate: 1 388e-05 rev/day^2 Epoch rev: 34245 Checksum: 323

Satellite: AAUSAT2 Catalog number: 32788 Epoch time: 14238 13655402 Element set: 6 Inclination: 097 6959 deg RA of node: 290 7284 deg Eccentricity: 0 0011756 Arg of perigee: 311 2451 deg Mean anomaly: 048 7752 deg Mean motion: 14 88924075 rev/day Decay rate: 3 250e-05 rev/day^2 Epoch rev: 34265 Checksum: 313

Satellite: DO-64 Catalog number: 32789 Epoch time: 14241 02139193 Element set: 49 Inclination: 097 7151 deg RA of node: 300 7513 deg Eccentricity: 0 0010471 Arg of perigee: 282 9575 deg Mean anomaly: 077 0982 deg Mean motion: 14 94007486 rev/day Decay rate: 1 8605e-04 rev/day^2 Epoch rev: 34337 Checksum: 316

Satellite: CO-66 Catalog number: 32791 Epoch time: 14238 05257688 Element set: 2 Inclination: 097 6944 deg RA of node: 288 1905 deg Eccentricity: 0 0013038 Arg of perigee: 317 2761 deg Mean anomaly: 042 7441 deg Mean motion: 14 86795701 rev/day Decay rate: 1 664e-05 rev/day^2 Epoch rev: 34243 Checksum: 321

Satellite: RS-30 Catalog number: 32953 Epoch time: 14238 25397793 Element set: 234 Inclination: 082 5110 deg RA of node: 157 6552 deg Eccentricity: 0 0020207 Arg of perigee: 008 3858 deg Mean anomaly: 351 7554 deg Mean motion: 12 43050117 rev/day Decay rate: 1 0e-07 rev/day^2 Epoch rev: 28396 Checksum: 282

Satellite: METEOR-M Catalog number: 35865 Epoch time: 14250 48450817 Element set: 839 Inclination: 098 5449 deg RA of node: 295 3728 deg Eccentricity: 0 0002030 Arg of perigee: 210 3880 deg Mean anomaly: 149 7840 deg Mean motion: 14 21927728 rev/day Decay rate: 1 2e-07 rev/day^2 Epoch rev: 25803 Checksum: 306

Satellite: RS-38 Catalog number: 35869 Epoch time: 14238 13290956 Element set: 751 Inclination: 098 5364 deg RA of node: 283 1732 deg Eccentricity: 0 0003773 Arg of perigee: 242 0396 deg Mean anomaly: 176 8675 deg Mean motion: 14 22222680 rev/day Decay rate: 2 0e-08 rev/day^2 Epoch rev: 25631 Checksum: 315

Satellite: JUGNU Catalog number: 37839 Epoch time: 14238 11969064 Element set: 680 Inclination: 019 9610 deg RA of node: 191 0904 deg Eccentricity: 0 0019170 Arg of perigee: 035 1242 deg Mean anomaly: 034 3018 deg Mean motion: 14 12328473 rev/day Decay rate: 3 88e-06 rev/day^2 Epoch rev: 14845 Checksum: 287

Satellite: SRMSAT Catalog number: 37841 Epoch time: 14235 39395903 Element set: 681 Inclination: 019 9713 deg RA of node: 228 2837 deg Eccentricity: 0 0011792 Arg of perigee: 303 1493 deg Mean anomaly: 179 1585 deg Mean motion: 14 10366060 rev/day Decay rate: 3 47e-06 rev/day^2 Epoch rev: 14785 Checksum: 310

Satellite: RAX-2 Catalog number: 37853 Epoch time: 14237 80098076 Element set: 895 Inclination: 101 7080 deg RA of node: 300 6748 deg Eccentricity: 0 0214836 Arg of perigee: 215 2067 deg Mean anomaly: 266 5243 deg Mean motion: 14 89986568 rev/day Decay rate: 6 071e-05 rev/day^2 Epoch rev: 15302 Checksum: 323

